This is the latest recevied weather packets stored in our database for station/object K2YYD-2. If no packets are shown the sender has not sent any weather packets the latest 1 day(s).
| Time | Temp. | Humidity | Pressure | Rain* | Wind** | Luminosity | Snow |
|---|---|---|---|---|---|---|---|
| 1777989529 | 20.56° C | 61% | 1008.1 hPa | 0 mm | 1.34 m/s, 192° | 677 W/m² | - |
| 1777989408 | 20.56° C | 61% | 1008.1 hPa | 0 mm | 1.34 m/s, 199° | 672 W/m² | - |
| 1777989315 | 20.56° C | 59% | 1008.1 hPa | 0 mm | 1.34 m/s, 190° | 666 W/m² | - |
| 1777989169 | 20° C | 61% | 1008.1 hPa | 0 mm | 1.34 m/s, 171° | 658 W/m² | - |
| 1777989049 | 20° C | 62% | 1008 hPa | 0 mm | 1.34 m/s, 189° | 654 W/m² | - |
| 1777988929 | 20° C | 61% | 1008 hPa | 0 mm | 1.34 m/s, 190° | 649 W/m² | - |
| 1777988809 | 20° C | 61% | 1008.1 hPa | 0 mm | 1.34 m/s, 291° | 644 W/m² | - |
| 1777988687 | 20° C | 63% | 1008.1 hPa | 0 mm | 1.34 m/s, 200° | 631 W/m² | - |
| 1777988566 | 20° C | 62% | 1008.1 hPa | 0 mm | 1.34 m/s, 177° | 485 W/m² | - |
| 1777988446 | 19.44° C | 63% | 1008 hPa | 0 mm | 1.34 m/s, 195° | 584 W/m² | - |
| 1777988325 | 19.44° C | 64% | 1008.1 hPa | 0 mm | 1.34 m/s, 171° | 503 W/m² | - |
| 1777988206 | 19.44° C | 65% | 1008.1 hPa | 0 mm | 1.34 m/s, 225° | 479 W/m² | - |
| 1777988087 | 19.44° C | 65% | 1008.1 hPa | 0 mm | 1.34 m/s, 197° | 343 W/m² | - |
| 1777987966 | 19.44° C | 66% | 1008.1 hPa | 0 mm | 1.34 m/s, 215° | 495 W/m² | - |
| 1777987846 | 19.44° C | 65% | 1008.2 hPa | 0 mm | 1.34 m/s, 159° | 261 W/m² | - |
| 1777987726 | 19.44° C | 65% | 1008.1 hPa | 0 mm | 1.34 m/s, 193° | 346 W/m² | - |
| 1777987606 | 19.44° C | 66% | 1008.2 hPa | 0 mm | 1.34 m/s, 196° | 265 W/m² | - |
| 1777987486 | 18.89° C | 67% | 1008.2 hPa | 0 mm | 1.34 m/s, 164° | 366 W/m² | - |
| 1777987366 | 18.89° C | 66% | 1008.1 hPa | 0 mm | 1.34 m/s, 181° | 332 W/m² | - |
| 1777987246 | 18.89° C | 67% | 1008.1 hPa | 0 mm | 1.34 m/s, 179° | 406 W/m² | - |
| 1777987126 | 18.89° C | 66% | 1008 hPa | 0 mm | 1.34 m/s, 167° | 496 W/m² | - |
| 1777987006 | 18.89° C | 66% | 1008.1 hPa | 0 mm | 1.34 m/s, 203° | 421 W/m² | - |
| 1777986887 | 18.89° C | 66% | 1008.1 hPa | 0 mm | 0.89 m/s, 209° | 472 W/m² | - |
| 1777986766 | 18.89° C | 68% | 1008.1 hPa | 0 mm | 0.89 m/s, 327° | 526 W/m² | - |
| 1777986646 | 18.89° C | 67% | 1008 hPa | 0 mm | 1.34 m/s, 205° | 512 W/m² | - |
* Rain latest hour (hover to see other rain measurements)
** Current wind speed in m/s (hover to see current wind gust speed)